Time,TemperatureF,DewpointF,PressureIn,WindDirection,WindDirectionDegrees,WindSpeedMPH,WindSpeedGustMPH,Humidity,HourlyPrecipIn,Conditions,Clouds,dailyrainin,SoftwareType,DateUTC
2013-10-17 00:06:00,76.7,72.0,29.96,NNE,24,3.0,7.0,85,0.00,,,0.00,weatherlink.com 1.10,2013-10-17 04:06:00,
2013-10-17 00:21:00,76.5,72.0,29.95,NNE,24,2.0,5.0,86,0.00,,,0.00,weatherlink.com 1.10,2013-10-17 04:21:00,
2013-10-17 00:36:00,76.4,72.0,29.95,NNE,22,5.0,7.0,86,0.00,,,0.00,weatherlink.com 1.10,2013-10-17 04:36:00,
2013-10-17 00:51:00,76.1,72.0,29.94,NNE,22,5.0,6.0,86,0.00,,,0.00,weatherlink.com 1.10,2013-10-17 04:51:00,
2013-10-17 01:06:00,75.8,71.0,29.94,NNE,22,3.0,4.0,86,0.00,,,0.00,weatherlink.com 1.10,2013-10-17 05:06:00,
2013-10-17 01:21:00,75.6,72.0,29.94,NNE,22,3.0,4.0,87,0.00,,,0.00,weatherlink.com 1.10,2013-10-17 05:21:00,
2013-10-17 01:36:00,75.5,72.0,29.94,NNE,22,3.0,5.0,88,0.00,,,0.00,weatherlink.com 1.10,2013-10-17 05:36:00,
2013-10-17 01:51:00,75.4,72.0,29.94,NNE,22,3.0,5.0,88,0.00,,,0.00,weatherlink.com 1.10,2013-10-17 05:51:00,
2013-10-17 02:06:00,75.1,71.0,29.94,NNE,22,3.0,5.0,88,0.00,,,0.00,weatherlink.com 1.10,2013-10-17 06:06:00,
2013-10-17 02:21:00,74.9,71.0,29.93,NNE,22,3.0,6.0,88,0.00,,,0.00,weatherlink.com 1.10,2013-10-17 06:21:00,
2013-10-17 02:36:00,74.6,71.0,29.92,NNE,22,2.0,4.0,88,0.00,,,0.00,weatherlink.com 1.10,2013-10-17 06:36:00,
2013-10-17 02:51:00,74.4,71.0,29.92,NNE,22,4.0,4.0,89,0.00,,,0.00,weatherlink.com 1.10,2013-10-17 06:51:00,
2013-10-17 03:06:00,74.1,71.0,29.92,NNE,22,2.0,4.0,89,0.00,,,0.00,weatherlink.com 1.10,2013-10-17 07:06:00,
2013-10-17 03:21:00,73.9,71.0,29.91,NNE,22,0.0,3.0,89,0.00,,,0.00,weatherlink.com 1.10,2013-10-17 07:21:00,
2013-10-17 03:36:00,73.6,71.0,29.91,NNE,22,0.0,0.0,90,0.00,,,0.00,weatherlink.com 1.10,2013-10-17 07:36:00,
2013-10-17 03:51:00,73.4,70.0,29.91,NNE,22,1.0,2.0,90,0.00,,,0.00,weatherlink.com 1.10,2013-10-17 07:51:00,
2013-10-17 04:06:00,73.2,70.0,29.91,NNE,22,0.0,1.0,90,0.00,,,0.00,weatherlink.com 1.10,2013-10-17 08:06:00,
2013-10-17 04:21:00,73.0,70.0,29.91,NNE,22,3.0,5.0,91,0.00,,,0.00,weatherlink.com 1.10,2013-10-17 08:21:00,
2013-10-17 04:36:00,73.2,71.0,29.92,NNE,22,2.0,4.0,91,0.00,,,0.00,weatherlink.com 1.10,2013-10-17 08:36:00,
2013-10-17 04:51:00,73.0,70.0,29.92,NNE,22,0.0,3.0,91,0.00,,,0.00,weatherlink.com 1.10,2013-10-17 08:51:00,
2013-10-17 05:06:00,72.8,70.0,29.92,NNE,22,6.0,7.0,91,0.00,,,0.00,weatherlink.com 1.10,2013-10-17 09:06:00,
2013-10-17 05:21:00,73.1,71.0,29.92,NNE,22,2.0,7.0,92,0.00,,,0.00,weatherlink.com 1.10,2013-10-17 09:21:00,
2013-10-17 05:36:00,73.3,71.0,29.92,NNE,22,3.0,6.0,92,0.00,,,0.00,weatherlink.com 1.10,2013-10-17 09:36:00,
2013-10-17 05:51:00,73.1,70.0,29.93,NNE,22,2.0,5.0,91,0.00,,,0.00,weatherlink.com 1.10,2013-10-17 09:51:00,
2013-10-17 06:06:00,72.8,70.0,29.93,NNE,22,2.0,4.0,91,0.00,,,0.00,weatherlink.com 1.10,2013-10-17 10:06:00,
2013-10-17 06:22:00,72.5,70.0,29.93,NNE,22,3.0,4.0,91,0.00,,,0.00,weatherlink.com 1.10,2013-10-17 10:22:00,
2013-10-17 06:37:00,72.2,70.0,29.94,NNE,22,0.0,2.0,92,0.00,,,0.00,weatherlink.com 1.10,2013-10-17 10:37:00,
2013-10-17 06:52:00,72.0,70.0,29.94,NNE,22,0.0,2.0,92,0.00,,,0.00,weatherlink.com 1.10,2013-10-17 10:52:00,
2013-10-17 07:07:00,71.8,69.0,29.95,NNE,22,4.0,4.0,92,0.00,,,0.00,weatherlink.com 1.10,2013-10-17 11:07:00,
2013-10-17 07:22:00,71.6,69.0,29.95,NNE,22,3.0,4.0,92,0.00,,,0.00,weatherlink.com 1.10,2013-10-17 11:22:00,
2013-10-17 07:37:00,71.4,69.0,29.95,NNE,22,3.0,6.0,92,0.00,,,0.00,weatherlink.com 1.10,2013-10-17 11:37:00,
2013-10-17 07:52:00,71.6,70.0,29.95,NNE,22,3.0,5.0,93,0.00,,,0.00,weatherlink.com 1.10,2013-10-17 11:52:00,
2013-10-17 08:07:00,72.0,70.0,29.96,NNE,22,2.0,4.0,93,0.00,,,0.00,weatherlink.com 1.10,2013-10-17 12:07:00,
2013-10-17 08:22:00,72.6,71.0,29.96,NNE,25,4.0,6.0,93,0.00,,,0.00,weatherlink.com 1.10,2013-10-17 12:22:00,
2013-10-17 08:37:00,73.2,71.0,29.97,NNE,25,2.0,5.0,93,0.00,,,0.00,weatherlink.com 1.10,2013-10-17 12:37:00,
2013-10-17 08:52:00,74.0,72.0,29.97,ENE,58,4.0,7.0,93,0.00,,,0.00,weatherlink.com 1.10,2013-10-17 12:52:00,
2013-10-17 09:07:00,75.0,73.0,29.97,ENE,61,5.0,8.0,92,0.00,,,0.00,weatherlink.com 1.10,2013-10-17 13:07:00,
2013-10-17 09:22:00,76.0,73.0,29.97,ENE,61,6.0,8.0,91,0.00,,,0.00,weatherlink.com 1.10,2013-10-17 13:22:00,
2013-10-17 09:37:00,77.2,74.0,29.97,ENE,62,5.0,7.0,89,0.00,,,0.00,weatherlink.com 1.10,2013-10-17 13:37:00,
2013-10-17 09:52:00,78.4,75.0,29.98,ENE,59,6.0,7.0,88,0.00,,,0.00,weatherlink.com 1.10,2013-10-17 13:52:00,
2013-10-17 10:07:00,79.7,75.0,29.98,ENE,64,0.0,8.0,86,0.00,,,0.00,weatherlink.com 1.10,2013-10-17 14:07:00,
2013-10-17 10:22:00,80.9,76.0,29.98,NE,56,5.0,7.0,84,0.00,,,0.00,weatherlink.com 1.10,2013-10-17 14:22:00,
2013-10-17 10:37:00,82.3,76.0,29.98,East,98,3.0,9.0,81,0.00,,,0.00,weatherlink.com 1.10,2013-10-17 14:37:00,
2013-10-17 10:52:00,82.6,76.0,29.98,SE,131,0.0,7.0,79,0.00,,,0.00,weatherlink.com 1.10,2013-10-17 14:52:00,
2013-10-17 11:07:00,83.2,75.0,29.98,ESE,106,2.0,6.0,77,0.00,,,0.00,weatherlink.com 1.10,2013-10-17 15:07:00,
2013-10-17 11:22:00,84.0,75.0,29.98,ESE,113,0.0,6.0,74,0.00,,,0.00,weatherlink.com 1.10,2013-10-17 15:22:00,
2013-10-17 11:37:00,84.8,75.0,29.97,ESE,114,2.0,6.0,73,0.00,,,0.00,weatherlink.com 1.10,2013-10-17 15:37:00,
2013-10-17 11:52:00,85.8,75.0,29.97,ESE,120,1.0,7.0,70,0.00,,,0.00,weatherlink.com 1.10,2013-10-17 15:52:00,
2013-10-17 12:07:00,86.3,74.0,29.96,ESE,121,3.0,5.0,67,0.00,,,0.00,weatherlink.com 1.10,2013-10-17 16:07:00,
2013-10-17 12:22:00,87.4,74.0,29.96,SE,128,1.0,7.0,64,0.00,,,0.00,weatherlink.com 1.10,2013-10-17 16:22:00,
2013-10-17 12:37:00,87.3,75.0,29.95,SSW,204,3.0,7.0,66,0.00,,,0.00,weatherlink.com 1.10,2013-10-17 16:37:00,
2013-10-17 12:52:00,86.3,75.0,29.95,WSW,246,4.0,10.0,68,0.00,,,0.00,weatherlink.com 1.10,2013-10-17 16:52:00,
2013-10-17 13:07:00,86.0,75.0,29.95,West,272,9.0,13.0,69,0.00,,,0.00,weatherlink.com 1.10,2013-10-17 17:07:00,
2013-10-17 13:22:00,85.4,74.0,29.94,West,270,9.0,14.0,69,0.00,,,0.00,weatherlink.com 1.10,2013-10-17 17:22:00,
2013-10-17 13:37:00,85.2,74.0,29.94,West,266,9.0,14.0,68,0.00,,,0.00,weatherlink.com 1.10,2013-10-17 17:37:00,
2013-10-17 13:52:00,85.1,73.0,29.94,WSW,256,5.0,17.0,68,0.00,,,0.00,weatherlink.com 1.10,2013-10-17 17:52:00,
2013-10-17 14:22:00,85.6,74.0,29.92,WSW,249,11.0,12.0,68,0.00,,,0.00,weatherlink.com 1.10,2013-10-17 18:22:00,
2013-10-17 14:37:00,85.4,74.0,29.92,WSW,256,5.0,17.0,69,0.00,,,0.00,weatherlink.com 1.10,2013-10-17 18:37:00,
2013-10-17 14:52:00,85.0,74.0,29.91,WSW,237,7.0,14.0,69,0.00,,,0.00,weatherlink.com 1.10,2013-10-17 18:52:00,
2013-10-17 15:07:00,85.2,74.0,29.91,WSW,239,7.0,11.0,69,0.00,,,0.00,weatherlink.com 1.10,2013-10-17 19:07:00,
2013-10-17 15:22:00,85.2,74.0,29.91,West,262,8.0,10.0,70,0.00,,,0.00,weatherlink.com 1.10,2013-10-17 19:22:00,
2013-10-17 15:37:00,85.3,74.0,29.91,West,278,7.0,13.0,69,0.00,,,0.00,weatherlink.com 1.10,2013-10-17 19:37:00,
2013-10-17 15:52:00,85.6,74.0,29.90,West,274,10.0,13.0,69,0.00,,,0.00,weatherlink.com 1.10,2013-10-17 19:52:00,
2013-10-17 16:07:00,85.6,74.0,29.90,West,273,8.0,14.0,68,0.00,,,0.00,weatherlink.com 1.10,2013-10-17 20:07:00,
2013-10-17 16:23:00,86.0,74.0,29.90,West,260,6.0,10.0,67,0.00,,,0.00,weatherlink.com 1.10,2013-10-17 20:23:00,
2013-10-17 16:38:00,85.6,73.0,29.90,West,272,5.0,13.0,66,0.00,,,0.00,weatherlink.com 1.10,2013-10-17 20:38:00,
2013-10-17 16:53:00,85.7,74.0,29.90,West,265,5.0,8.0,67,0.00,,,0.00,weatherlink.com 1.10,2013-10-17 20:53:00,
2013-10-17 17:08:00,85.4,72.0,29.90,West,279,7.0,9.0,65,0.00,,,0.00,weatherlink.com 1.10,2013-10-17 21:08:00,
2013-10-17 17:23:00,84.9,73.0,29.90,SW,218,4.0,10.0,68,0.00,,,0.00,weatherlink.com 1.10,2013-10-17 21:23:00,
2013-10-17 17:38:00,85.1,73.0,29.90,West,268,3.0,11.0,68,0.00,,,0.00,weatherlink.com 1.10,2013-10-17 21:38:00,
2013-10-17 17:53:00,85.4,73.0,29.90,West,262,6.0,8.0,67,0.00,,,0.00,weatherlink.com 1.10,2013-10-17 21:53:00,
2013-10-17 18:08:00,85.1,73.0,29.90,West,272,3.0,8.0,68,0.00,,,0.00,weatherlink.com 1.10,2013-10-17 22:08:00,
2013-10-17 18:23:00,84.3,73.0,29.90,West,262,5.0,8.0,69,0.00,,,0.00,weatherlink.com 1.10,2013-10-17 22:23:00,
2013-10-17 18:38:00,83.7,73.0,29.91,West,263,3.0,7.0,70,0.00,,,0.00,weatherlink.com 1.10,2013-10-17 22:38:00,
2013-10-17 18:53:00,83.0,73.0,29.91,West,263,3.0,6.0,71,0.00,,,0.00,weatherlink.com 1.10,2013-10-17 22:53:00,
2013-10-17 19:08:00,82.3,72.0,29.91,West,263,1.0,6.0,72,0.00,,,0.00,weatherlink.com 1.10,2013-10-17 23:08:00,
2013-10-17 19:23:00,81.9,72.0,29.91,West,263,0.0,2.0,73,0.00,,,0.00,weatherlink.com 1.10,2013-10-17 23:23:00,
2013-10-17 19:38:00,81.6,73.0,29.91,West,263,3.0,3.0,74,0.00,,,0.00,weatherlink.com 1.10,2013-10-17 23:38:00,
2013-10-17 19:53:00,81.1,73.0,29.91,West,263,3.0,5.0,75,0.00,,,0.00,weatherlink.com 1.10,2013-10-17 23:53:00,
2013-10-17 20:08:00,80.7,73.0,29.92,West,263,3.0,5.0,77,0.00,,,0.00,weatherlink.com 1.10,2013-10-18 00:08:00,
2013-10-17 20:23:00,80.5,73.0,29.92,West,263,3.0,6.0,78,0.00,,,0.00,weatherlink.com 1.10,2013-10-18 00:23:00,
2013-10-17 20:38:00,80.5,73.0,29.92,West,279,1.0,6.0,78,0.00,,,0.00,weatherlink.com 1.10,2013-10-18 00:38:00,
2013-10-17 20:53:00,80.5,73.0,29.92,West,279,1.0,3.0,79,0.00,,,0.00,weatherlink.com 1.10,2013-10-18 00:53:00,
2013-10-17 21:08:00,80.4,73.0,29.93,West,279,2.0,5.0,79,0.00,,,0.00,weatherlink.com 1.10,2013-10-18 01:08:00,
2013-10-17 21:23:00,80.3,73.0,29.93,West,279,0.0,2.0,79,0.00,,,0.00,weatherlink.com 1.10,2013-10-18 01:23:00,
2013-10-17 21:38:00,80.2,73.0,29.93,West,279,2.0,5.0,79,0.00,,,0.00,weatherlink.com 1.10,2013-10-18 01:38:00,
2013-10-17 21:53:00,80.2,73.0,29.94,West,281,0.0,5.0,79,0.00,,,0.00,weatherlink.com 1.10,2013-10-18 01:53:00,
2013-10-17 22:08:00,80.2,73.0,29.94,West,281,1.0,2.0,79,0.00,,,0.00,weatherlink.com 1.10,2013-10-18 02:08:00,
2013-10-17 22:23:00,79.8,73.0,29.94,West,281,0.0,3.0,79,0.00,,,0.00,weatherlink.com 1.10,2013-10-18 02:23:00,
2013-10-17 22:38:00,79.6,73.0,29.94,West,281,1.0,5.0,80,0.00,,,0.00,weatherlink.com 1.10,2013-10-18 02:38:00,
2013-10-17 22:53:00,79.2,73.0,29.94,West,281,0.0,5.0,80,0.00,,,0.00,weatherlink.com 1.10,2013-10-18 02:53:00,
2013-10-17 23:08:00,78.8,73.0,29.94,West,281,0.0,3.0,81,0.00,,,0.00,weatherlink.com 1.10,2013-10-18 03:08:00,
2013-10-17 23:23:00,78.6,72.0,29.95,West,281,2.0,3.0,81,0.00,,,0.00,weatherlink.com 1.10,2013-10-18 03:23:00,
2013-10-17 23:38:00,78.6,73.0,29.95,WNW,302,3.0,5.0,82,0.00,,,0.00,weatherlink.com 1.10,2013-10-18 03:38:00,
2013-10-17 23:53:00,78.5,73.0,29.95,North,10,3.0,8.0,82,0.00,,,0.00,weatherlink.com 1.10,2013-10-18 03:53:00,